Location: Aressy
(43.2833°N, 0.3167°W)
Time: 01:56:32
(UTC+00:00)

MOS 1 Rocket - Pass Details

Date: 28 January 2021
Orbit: 614 x 830 km, 97.4° (Epoch: 08 March)

Event Time Altitude Azimuth Distance (km) Brightness Sun altitude
Rises 18:39:40 0° 7° (N) 2,895 6.3 -16.7°
Reaches altitude 10° 18:41:52 10° 3° (N) 1,985 5.5 -17.1°
Maximum altitude 18:46:03 54° 287° (WNW) 759 3.8 -17.9°
Drops below altitude 10° 18:50:17 10° 210° (SSW) 2,011 6.2 -18.7°
Sets 18:52:33 0° 205° (SSW) 2,937 7.0 -19.1°
